FW4251 Weather Reports


Display with metric or nautical units.
time (UTC)temp
F
wind
direction
speed
MPH
gust
MPH
rain 1hr
in
rain 24hr
in
rain mn
in
humidity
%
barometer
mb
20260901201057 76 38 1.0 6.0 0.00 0.00 0.00 86 1014.6
20260901200558 76 40 0.0 5.0 0.00 0.00 0.00 86 1014.6
20260901200057 76 355 1.0 3.0 0.00 0.00 0.00 85 1014.4
20260901195555 77 259 1.0 3.0 0.00 0.00 0.00 85 1014.5
20260901195055 77 117 1.0 3.0 0.00 0.00 0.00 85 1014.5
20260901194603 77 55 1.0 3.0 0.00 0.00 0.00 85 1014.5
20260901194056 77 57 0.0 3.0 0.00 0.00 0.00 84 1014.5
20260901193557 78 74 1.0 4.0 0.00 0.00 0.00 84 1014.5
20260901193103 78 46 0.0 5.0 0.00 0.00 0.00 83 1014.5
20260901192553 79 49 1.0 6.0 0.00 0.00 0.00 83 1014.4
20260901192054 79 88 1.0 6.0 0.00 0.00 0.00 83 1014.2
20260901191602 79 85 2.0 6.0 0.00 0.00 0.00 83 1014.3
20260901191053 80 86 0.0 0.0 0.00 0.00 0.00 82 1014.2
20260901190553 80 86 0.0 4.0 0.00 0.00 0.00 82 1014.2
20260901190117 80 86 1.0 6.0 0.00 0.00 0.00 82 1014.1
20260901185553 81 86 1.0 6.0 0.00 0.00 0.00 82 1014.2
20260901185052 81 192 0.0 3.0 0.00 0.00 0.00 80 1014.1
20260901184552 81 192 0.0 3.0 0.00 0.00 0.00 81 1014.2
20260901184051 81 192 0.0 2.0 0.00 0.00 0.00 82 1014.2
20260901183553 81 192 0.0 5.0 0.00 0.00 0.00 83 1014.2
20260901183051 80 192 0.0 5.0 0.00 0.00 0.00 83 1014.1
20260901182548 80 86 0.0 3.0 0.00 0.00 0.00 86 1014.1
20260901182047 80 86 1.0 4.0 0.00 0.00 0.00 86 1014.1
20260901181546 79 170 0.0 5.0 0.00 0.00 0.00 87 1014.1
20260901181044 79 175 2.0 4.0 0.00 0.00 0.00 90 1014.0
20260901180543 78 188 1.0 3.0 0.00 0.00 0.00 91 1014.1
20260901180042 78 190 0.0 4.0 0.00 0.00 0.00 92 1014.0
20260901175540 77 190 0.0 5.0 0.00 0.00 0.00 92 1014.0
20260901175040 77 173 1.0 5.0 0.00 0.00 0.00 93 1014.0
20260901174548 76 173 0.0 2.0 0.00 0.00 0.00 94 1014.0
20260901174038 76 173 0.0 2.0 0.00 0.00 0.00 94 1014.0
20260901173536 76 173 0.0 4.0 0.00 0.00 0.00 94 1013.9
20260901173036 75 173 1.0 5.0 0.00 0.00 0.00 95 1014.0
20260901172534 75 197 2.0 4.0 0.00 0.00 0.00 95 1014.0
20260901172033 75 215 0.0 5.0 0.00 0.00 0.00 95 1014.0
20260901171532 74 216 2.0 5.0 0.00 0.00 0.00 95 1014.0
20260901171030 74 235 2.0 4.0 0.00 0.00 0.00 95 1014.1
20260901170530 74 209 2.0 4.0 0.00 0.00 0.00 95 1014.1
20260901170030 74 141 1.0 7.0 0.00 0.00 0.00 96 1014.1
20260901165533 74 171 3.0 7.0 0.00 0.00 0.00 96 1014.1
20260901165030 74 242 1.0 6.0 0.00 0.00 0.00 96 1014.4
20260901164527 74 196 2.0 7.0 0.00 0.00 0.00 96 1014.3
20260901164025 74 167 3.0 7.0 0.00 0.00 0.00 96 1014.3
20260901163523 73 156 2.0 7.0 0.00 0.00 0.00 97 1014.3
20260901163036 73 234 1.0 8.0 0.00 0.00 0.00 96 1014.3
20260901162520 73 203 2.0 6.0 0.00 0.00 0.00 96 1014.4
20260901162019 72 194 1.0 6.0 0.00 0.00 0.00 96 1014.5
20260901161522 72 221 1.0 5.0 0.00 0.00 0.00 96 1014.7
20260901161017 72 223 2.0 5.0 0.00 0.00 0.00 96 1014.8
20260901160515 72 174 2.0 7.0 0.00 0.00 0.00 96 1014.8
20260901160015 71 129 3.0 7.0 0.00 0.00 0.00 96 1014.9
20260901155513 71 165 2.0 5.0 0.00 0.00 0.00 96 1015.1
20260901155012 71 160 2.0 6.0 0.00 0.00 0.00 96 1015.2
20260901154522 71 189 2.0 6.0 0.00 0.00 0.00 96 1015.3
20260901154011 71 225 3.0 7.0 0.00 0.00 0.00 96 1015.4
20260901153510 71 207 1.0 7.0 0.00 0.00 0.00 96 1015.5
20260901153017 71 194 3.0 6.0 0.00 0.00 0.00 96 1015.5
20260901152509 71 190 2.0 8.0 0.00 0.00 0.00 96 1015.5
20260901152007 71 184 1.0 8.0 0.00 0.00 0.00 96 1015.4
20260901151509 71 194 1.0 4.0 0.00 0.00 0.00 96 1015.4
20260901151007 71 195 2.0 5.0 0.00 0.00 0.00 96 1015.5
20260901150505 71 193 2.0 5.0 0.00 0.00 0.00 96 1015.6
20260901150007 71 189 2.0 4.0 0.00 0.00 0.00 96 1015.6
20260901145506 71 192 2.0 4.0 0.00 0.00 0.00 96 1015.6
20260901145005 71 232 2.0 4.0 0.00 0.00 0.00 96 1015.4
20260901144513 71 238 2.0 4.0 0.00 0.00 0.00 96 1015.4
20260901144004 71 190 1.0 4.0 0.00 0.00 0.00 96 1015.5
20260901143503 71 190 2.0 6.0 0.00 0.00 0.00 96 1015.5
20260901143004 70 232 2.0 6.0 0.00 0.00 0.00 96 1015.4
20260901142503 70 231 0.0 4.0 0.00 0.00 0.00 96 1015.3
20260901142002 70 231 1.0 4.0 0.00 0.00 0.00 96 1015.5
20260901141502 70 147 1.0 5.0 0.00 0.00 0.00 96 1015.5
20260901141101 70 146 1.0 5.0 0.00 0.00 0.00 96 1015.2
20260901140601 70 146 2.0 7.0 0.00 0.00 0.00 96 1015.3
20260901140103 69 202 2.0 5.0 0.00 0.00 0.00 96 1015.5
20260901135558 69 239 2.0 5.0 0.00 0.00 0.00 96 1015.5
20260901135058 69 161 2.0 5.0 0.00 0.00 0.00 96 1015.6
20260901134602 69 155 1.0 3.0 0.00 0.00 0.00 95 1015.6
20260901134100 69 155 0.0 2.0 0.00 0.00 0.00 95 1015.7
20260901133600 69 155 0.0 5.0 0.00 0.00 0.00 95 1015.7
20260901133105 69 155 1.0 6.0 0.00 0.00 0.00 95 1015.7
20260901132556 69 178 2.0 6.0 0.00 0.00 0.00 95 1015.7
20260901132055 69 171 2.0 4.0 0.00 0.00 0.00 95 1015.7
20260901131555 69 172 1.0 3.0 0.00 0.00 0.00 95 1015.6
20260901131054 69 172 0.0 3.0 0.00 0.00 0.00 95 1015.6
20260901131024 69 172 0.0 3.0 0.00 0.00 0.00 95 1015.6
20260901130554 69 172 1.0 3.0 0.00 0.00 0.00 95 1015.7
20260901130055 69 173 1.0 3.0 0.00 0.00 0.00 95 1016.1
20260901125553 69 173 0.0 3.0 0.00 0.00 0.00 95 1016.3
20260901125053 69 173 1.0 5.0 0.00 0.00 0.00 95 1016.2
20260901124553 69 173 0.0 5.0 0.00 0.00 0.00 95 1015.9
20260901124053 69 196 2.0 5.0 0.00 0.00 0.00 95 1015.9
20260901123554 69 219 2.0 5.0 0.00 0.00 0.00 95 1015.9
20260901123053 69 194 2.0 5.0 0.00 0.00 0.00 95 1016.0
20260901122552 69 203 0.0 2.0 0.00 0.00 0.00 95 1015.8
20260901122055 69 203 1.0 3.0 0.00 0.00 0.00 95 1016.0
20260901121555 69 203 1.0 3.0 0.00 0.00 0.00 95 1016.1
20260901121052 69 204 1.0 4.0 0.00 0.00 0.00 95 1016.2
20260901120551 68 205 1.0 4.0 0.00 0.00 0.00 95 1016.3
20260901120051 68 206 0.0 3.0 0.00 0.00 0.00 95 1016.1
20260901115551 68 206 0.0 1.0 0.00 0.00 0.00 95 1015.8
20260901115052 68 206 0.0 2.0 0.00 0.00 0.00 95 1016.0
20260901114550 68 206 0.0 2.0 0.00 0.00 0.00 95 1015.8
20260901114052 68 206 0.0 4.0 0.00 0.00 0.00 95 1015.6
20260901113550 68 206 1.0 5.0 0.00 0.00 0.00 95 1015.8
20260901113050 68 186 2.0 5.0 0.00 0.00 0.00 95 1015.6
20260901112549 68 183 1.0 4.0 0.00 0.00 0.00 95 1015.4
20260901112049 68 183 1.0 4.0 0.00 0.00 0.00 95 1015.6
20260901111551 68 173 1.0 4.0 0.00 0.00 0.00 95 1015.6
20260901111049 68 173 1.0 3.0 0.00 0.00 0.00 95 1015.6
20260901110550 68 173 1.0 3.0 0.00 0.00 0.00 95 1015.6
20260901110050 68 173 1.0 2.0 0.00 0.00 0.00 95 1015.7
20260901105547 68 173 0.0 2.0 0.00 0.00 0.00 95 1015.7
20260901105047 68 173 1.0 3.0 0.00 0.00 0.00 95 1015.7
20260901104555 68 173 0.0 3.0 0.00 0.00 0.00 95 1015.6
20260901104047 68 173 1.0 3.0 0.00 0.00 0.00 95 1015.5
20260901103546 68 173 0.0 3.0 0.00 0.00 0.00 95 1015.5
20260901103047 68 173 0.0 4.0 0.00 0.00 0.00 95 1015.6
20260901102547 68 173 1.0 4.0 0.00 0.00 0.00 95 1015.5
20260901102048 68 173 1.0 4.0 0.00 0.00 0.00 95 1015.5
20260901101546 68 173 2.0 5.0 0.00 0.00 0.00 95 1015.5
20260901101046 68 173 2.0 5.0 0.00 0.00 0.00 95 1015.3
20260901100545 68 187 1.0 4.0 0.00 0.00 0.00 94 1015.5
20260901100052 68 187 1.0 4.0 0.00 0.00 0.00 95 1015.5
20260901095543 68 192 1.0 5.0 0.00 0.00 0.00 94 1015.4
20260901095044 68 192 1.0 5.0 0.00 0.00 0.00 94 1015.5
20260901094549 68 192 1.0 5.0 0.00 0.00 0.00 94 1015.4
20260901094043 68 190 1.0 5.0 0.00 0.00 0.00 94 1015.5
20260901093542 68 192 2.0 4.0 0.00 0.00 0.00 94 1015.6
20260901093042 68 179 1.0 5.0 0.00 0.00 0.00 94 1015.5
20260901092541 68 180 2.0 5.0 0.00 0.00 0.00 94 1015.6
20260901092041 68 180 1.0 3.0 0.00 0.00 0.00 94 1015.5
20260901091544 68 191 0.0 5.0 0.00 0.00 0.00 94 1015.6
20260901091043 68 191 1.0 4.0 0.00 0.00 0.00 94 1015.6
20260901090543 68 169 1.0 6.0 0.00 0.00 0.00 94 1015.7
20260901090052 68 179 2.0 4.0 0.00 0.00 0.00 94 1015.7
20260901085541 68 177 2.0 4.0 0.00 0.00 0.00 94 1015.8
20260901085042 68 173 1.0 5.0 0.00 0.00 0.00 94 1015.6
20260901084539 68 171 2.0 5.0 0.00 0.00 0.00 94 1015.7
20260901084038 68 167 1.0 3.0 0.00 0.00 0.00 94 1015.7
20260901083538 68 167 0.0 5.0 0.00 0.00 0.00 94 1015.8
20260901083038 68 167 1.0 5.0 0.00 0.00 0.00 94 1015.9
20260901082538 68 153 1.0 3.0 0.00 0.00 0.00 94 1016.0
20260901082037 68 153 0.0 2.0 0.00 0.00 0.00 94 1016.0
20260901081538 68 153 0.0 1.0 0.00 0.00 0.00 94 1016.1
20260901081038 68 153 0.0 2.0 0.00 0.00 0.00 94 1016.0
20260901080538 68 153 0.0 5.0 0.00 0.00 0.00 94 1015.9
20260901080040 68 153 0.0 5.0 0.00 0.00 0.00 94 1015.9
20260901075537 68 197 0.0 3.0 0.00 0.00 0.00 94 1016.0
20260901075036 68 197 1.0 3.0 0.00 0.00 0.00 94 1016.2
20260901074534 68 197 1.0 3.0 0.00 0.00 0.00 94 1016.3
20260901074033 68 197 1.0 3.0 0.00 0.00 0.00 94 1016.3
20260901073532 68 197 1.0 3.0 0.00 0.00 0.00 94 1016.4
20260901073032 68 198 0.0 2.0 0.00 0.00 0.00 94 1016.4
20260901072532 68 198 1.0 2.0 0.00 0.00 0.00 94 1016.5
20260901072032 68 198 0.0 2.0 0.00 0.00 0.00 94 1016.6
20260901071532 68 198 0.0 2.0 0.00 0.00 0.00 94 1016.5
20260901071033 68 198 0.0 2.0 0.00 0.00 0.00 94 1016.5
20260901070530 68 198 0.0 1.0 0.00 0.00 0.00 93 1016.6
20260901070045 68 198 0.0 0.0 0.00 0.00 0.00 93 1016.7
20260901065530 68 198 0.0 0.0 0.00 0.00 0.00 93 1016.6
20260901065030 68 198 0.0 0.0 0.00 0.00 0.00 93 1016.6
20260901064530 68 198 0.0 0.0 0.00 0.00 0.00 93 1016.7
20260901064030 68 198 0.0 2.0 0.00 0.00 0.00 93 1016.7
20260901063529 68 198 0.0 2.0 0.00 0.00 0.00 93 1016.6
20260901063033 68 198 0.0 0.0 0.00 0.00 0.00 93 1016.7
20260901062532 68 198 0.0 0.0 0.00 0.00 0.00 93 1016.6
20260901062029 68 198 0.0 0.0 0.00 0.00 0.00 93 1016.8
20260901061527 68 198 0.0 0.0 0.00 0.00 0.00 93 1016.8
20260901061028 68 198 0.0 2.0 0.00 0.00 0.00 93 1016.9
20260901060527 68 198 0.0 2.0 0.00 0.00 0.00 93 1017.0
20260901060034 68 198 0.0 0.0 0.00 0.00 0.00 93 1017.1
20260901055525 68 198 0.0 0.0 0.00 0.00 0.00 93 1017.1
20260901055025 68 198 0.0 0.0 0.00 0.00 0.00 93 1017.1
20260901054526 68 198 0.0 0.0 0.00 0.00 0.00 93 1017.1
20260901054025 68 198 0.0 0.0 0.00 0.00 0.00 93 1017.1
20260901053524 68 198 0.0 0.0 0.00 0.00 0.00 93 1017.3
20260901053024 68 198 0.0 0.0 0.00 0.00 0.00 93 1017.3
20260901052523 68 198 0.0 0.0 0.00 0.00 0.00 93 1017.2
20260901052023 68 198 0.0 0.0 0.00 0.00 0.00 93 1017.3
20260901051523 68 198 0.0 0.0 0.00 0.00 0.00 93 1017.3
20260901051022 68 198 0.0 0.0 0.00 0.00 0.00 93 1017.4
20260901050526 68 198 0.0 0.0 0.00 0.00 0.00 93 1017.5
20260901050022 68 198 0.0 0.0 0.00 0.00 0.00 93 1017.3
20260901045521 68 198 0.0 1.0 0.00 0.00 0.00 93 1017.5
20260901045020 68 198 0.0 1.0 0.00 0.00 0.00 93 1017.6
20260901044520 68 198 0.0 0.0 0.00 0.00 0.00 93 1017.7
20260901044021 68 198 0.0 0.0 0.00 0.00 0.00 93 1017.6
20260901043520 68 198 0.0 0.0 0.00 0.00 0.00 93 1017.6
20260901043019 68 198 0.0 1.0 0.00 0.00 0.00 93 1017.5
20260901042522 68 198 0.0 1.0 0.00 0.00 0.00 93 1017.5
20260901042018 68 198 0.0 0.0 0.00 0.00 0.00 93 1017.4
20260901041520 68 198 0.0 3.0 0.00 0.00 0.00 93 1017.5
20260901041018 68 198 0.0 3.0 0.00 0.00 0.00 93 1017.5
20260901040519 68 198 0.0 2.0 0.00 0.00 0.00 93 1017.6
20260901040018 68 198 0.0 2.0 0.00 0.00 0.00 93 1017.7
20260901035515 68 198 0.0 3.0 0.00 0.00 0.00 93 1017.7
20260901035016 68 198 1.0 3.0 0.00 0.00 0.00 93 1017.8
20260901034515 68 198 0.0 3.0 0.00 0.00 0.00 93 1017.7
20260901034014 68 198 0.0 3.0 0.00 0.00 0.00 93 1017.7
20260901033514 68 198 0.0 0.0 0.00 0.00 0.00 92 1017.9
20260901033029 68 198 0.0 0.0 0.00 0.00 0.00 92 1017.9
20260901032515 68 198 0.0 0.0 0.00 0.00 0.00 92 1017.9
20260901032015 68 198 0.0 0.0 0.00 0.00 0.00 92 1018.0
20260901031521 68 198 0.0 0.0 0.00 0.00 0.00 92 1017.9
20260901031013 68 198 0.0 2.0 0.00 0.00 0.00 92 1017.9
20260901030513 68 198 0.0 2.0 0.00 0.00 0.00 92 1017.8
20260901030013 68 198 0.0 2.0 0.00 0.00 0.00 92 1017.9
20260901025512 68 198 0.0 2.0 0.00 0.00 0.00 92 1017.9
20260901025012 68 198 0.0 3.0 0.00 0.00 0.00 92 1017.9
20260901024512 68 198 1.0 3.0 0.00 0.00 0.00 92 1018.0
20260901024011 68 198 1.0 4.0 0.00 0.00 0.00 92 1018.0
20260901023511 68 197 2.0 4.0 0.00 0.00 0.00 92 1018.1
20260901023010 68 203 0.0 4.0 0.00 0.00 0.00 92 1018.1
20260901022510 68 203 1.0 4.0 0.00 0.00 0.00 92 1018.1
20260901022012 68 203 0.0 3.0 0.00 0.00 0.00 91 1018.2
20260901021512 68 203 1.0 3.0 0.00 0.00 0.00 91 1018.2
20260901021112 68 203 0.0 4.0 0.00 0.00 0.00 91 1018.2
20260901020509 68 203 2.0 4.0 0.00 0.00 0.00 91 1018.2
20260901020010 68 203 1.0 3.0 0.00 0.00 0.00 91 1018.3
20260901015509 68 203 0.0 2.0 0.00 0.00 0.00 91 1018.3
20260901015008 68 203 0.0 2.0 0.00 0.00 0.00 90 1018.2
20260901014510 68 203 0.0 2.0 0.00 0.00 0.00 90 1018.2
20260901014008 68 203 0.0 2.0 0.00 0.00 0.00 90 1018.1
20260901013508 68 203 0.0 3.0 0.00 0.00 0.00 90 1018.1
20260901013008 68 203 0.0 3.0 0.00 0.00 0.00 90 1018.1
20260901012507 68 203 0.0 2.0 0.00 0.00 0.00 90 1018.2
20260901012007 69 203 0.0 0.0 0.00 0.00 0.00 90 1018.2
20260901011511 69 203 0.0 0.0 0.00 0.00 0.00 90 1018.2
20260901011009 69 203 0.0 0.0 0.00 0.00 0.00 90 1018.2
20260901010507 69 203 0.0 0.0 0.00 0.00 0.00 90 1018.3
20260901010020 69 203 0.0 0.0 0.00 0.00 0.00 90 1018.3
20260901005506 69 203 0.0 0.0 0.00 0.00 0.00 89 1018.2
20260901005007 69 203 0.0 0.0 0.00 0.00 0.00 89 1018.3
20260901004508 69 203 0.0 0.0 0.00 0.00 0.00 89 1018.4
20260901004005 69 203 0.0 0.0 0.00 0.00 0.00 89 1018.3
20260901003509 69 203 0.0 0.0 0.00 0.00 0.00 89 1018.4
20260901003006 69 203 0.0 0.0 0.00 0.00 0.00 89 1018.3
20260901002507 69 203 0.0 0.0 0.00 0.00 0.00 89 1018.4
20260901002006 69 203 0.0 1.0 0.00 0.00 0.00 89 1018.4
20260901001506 69 203 0.0 2.0 0.00 0.00 0.00 89 1018.3
20260901001005 70 203 0.0 3.0 0.00 0.00 0.00 88 1018.2
20260901000505 70 203 1.0 3.0 0.00 0.00 0.00 88 1018.3
20260901000005 70 203 0.0 1.0 0.00 0.00 0.00 88 1018.2
20260831235508 70 203 0.0 1.0 0.00 0.00 0.00 88 1018.2
20260831235004 70 203 0.0 2.0 0.00 0.00 0.00 88 1018.2
20260831234504 70 203 0.0 2.0 0.00 0.00 0.00 88 1018.2
20260831234004 70 203 0.0 1.0 0.00 0.00 0.00 88 1018.2
20260831233503 70 203 0.0 2.0 0.00 0.00 0.00 88 1018.1
20260831233004 70 203 0.0 3.0 0.00 0.00 0.00 88 1018.0
20260831232503 70 203 0.0 3.0 0.00 0.00 0.00 88 1018.0
20260831232004 70 203 0.0 1.0 0.00 0.00 0.00 88 1018.1
20260831231503 70 203 0.0 1.0 0.00 0.00 0.00 88 1018.1
20260831231003 71 203 0.0 3.0 0.00 0.00 0.00 88 1018.2
20260831230502 71 203 0.0 3.0 0.00 0.00 0.00 87 1018.3
20260831230000 71 203 0.0 3.0 0.00 0.00 0.00 87 1018.3
20260831225600 71 203 1.0 3.0 0.00 0.00 0.00 87 1018.5
20260831225100 71 203 0.0 3.0 0.00 0.00 0.00 87 1018.5
20260831224600 71 203 1.0 3.0 0.00 0.00 0.00 87 1018.4
20260831224100 71 203 0.0 3.0 0.00 0.00 0.00 87 1018.4
20260831223601 71 203 1.0 3.0 0.00 0.00 0.00 86 1018.5
20260831223108 71 203 1.0 3.0 0.00 0.00 0.00 87 1018.5
20260831222559 71 203 0.0 2.0 0.00 0.00 0.00 86 1018.5
20260831222058 71 203 0.0 3.0 0.00 0.00 0.00 86 1018.6
20260831221603 71 203 0.0 3.0 0.00 0.00 0.00 86 1018.6
20260831221058 71 203 0.0 0.0 0.00 0.00 0.00 85 1018.6
20260831220558 71 203 0.0 2.0 0.00 0.00 0.00 85 1018.6
20260831220057 72 203 0.0 2.0 0.00 0.00 0.00 85 1018.6
20260831215555 72 203 0.0 2.0 0.00 0.00 0.00 85 1018.7
20260831215056 72 203 0.0 2.0 0.00 0.00 0.00 85 1018.7
20260831214556 72 203 0.0 3.0 0.00 0.00 0.00 85 1018.6
20260831214054 72 203 0.0 3.0 0.00 0.00 0.00 85 1018.6
20260831213554 72 203 0.0 3.0 0.00 0.00 0.00 85 1018.6
20260831213056 72 203 0.0 3.0 0.00 0.00 0.00 84 1018.7
20260831212553 72 203 0.0 2.0 0.00 0.00 0.00 84 1018.8
20260831212053 72 203 0.0 2.0 0.00 0.00 0.00 84 1018.7
20260831211604 73 203 0.0 2.0 0.00 0.00 0.00 84 1018.7
20260831211051 73 203 0.0 2.0 0.00 0.00 0.00 84 1018.6
20260831210552 73 203 0.0 2.0 0.00 0.00 0.00 84 1018.6
20260831210052 73 203 0.0 2.0 0.00 0.00 0.00 84 1018.6
20260831205550 73 203 0.0 2.0 0.00 0.00 0.00 84 1018.6
20260831205050 73 203 0.0 2.0 0.00 0.00 0.00 83 1018.6
20260831204550 73 203 0.0 3.0 0.00 0.00 0.00 83 1018.7
20260831204051 73 203 1.0 3.0 0.00 0.00 0.00 83 1018.7
20260831203550 74 203 1.0 2.0 0.00 0.00 0.00 83 1018.7
20260831203054 74 203 0.0 1.0 0.00 0.00 0.00 83 1018.6
20260831202548 74 203 0.0 2.0 0.00 0.00 0.00 83 1018.6
20260831202048 74 203 0.0 2.0 0.00 0.00 0.00 83 1018.7
20260831201557 74 203 0.0 3.0 0.00 0.00 0.00 82 1018.7